ロニオス彗星

P/2005 SB216 ( LONEOS )

English version
Home page
Total 6,336 html files since Dec. 4, 1995
Updated on October 15, 2008

---------------------------------------------------------------------

・ プロフィール

発見日 2005年9月30日
発見光度 19.1等
発見者 Lowell Observatory Near-Earth Object Search

・ 写真集

・ 軌道要素

The following orbital elements are taken from MPC 61994:

Epoch 2007 Mar. 1.0 TT = JDT 2454160.5
T 2007 Feb. 11.3901 TT                                  MPC
q   3.818343             (2000.0)            P               Q
n   0.0519331      Peri.   83.5777      +0.0849110      -0.9963150
a   7.114968       Node     1.6990      +0.6735493      +0.0484415
e   0.463337       Incl.   24.0981      +0.7342489      +0.0707803
P  19.0
From 317 observations 2005 Sept. 23-2008 Feb. 13, mean residual 0".7.

・ 星図

・ 光度変化

        m1 = 8.5 + 5 logΔ + 10.0 log r

---------------------------------------------------------------------

軌道要素はMPCのEphemerides and Orbital Elementsに掲載されたものです。
星図は StellaNavigator Ver.2.0 for Windows (アストロアーツ 編著 / アスキー出版局刊) で作成したものです。
光度グラフはComet for Windowsで作成したものです。

---------------------------------------------------------------------

Copyright(C) 1995-2008 Seiichi Yoshida (comet@aerith.net). All rights reserved.